Time,TemperatureF,DewpointF,PressureIn,WindDirection,WindDirectionDegrees,WindSpeedMPH,WindSpeedGustMPH,Humidity,HourlyPrecipIn,Conditions,Clouds,dailyrainin,SoftwareType,DateUTC
2013-03-20 00:07:00,59.0,35.0,29.99,NNE,22,3.0,5.0,40,0.00,,,0.00,weatherlink.com 1.10,2013-03-20 04:07:00,
2013-03-20 00:22:00,59.4,34.0,30.00,NNE,16,2.0,7.0,38,0.00,,,0.00,weatherlink.com 1.10,2013-03-20 04:22:00,
2013-03-20 07:09:00,51.3,33.0,30.03,North,7,4.0,9.0,50,0.00,,,0.00,weatherlink.com 1.10,2013-03-20 11:09:00,
2013-03-20 07:24:00,51.3,32.0,30.04,NE,41,2.0,7.0,48,0.00,,,0.00,weatherlink.com 1.10,2013-03-20 11:24:00,
2013-03-20 07:39:00,51.2,32.0,30.04,ESE,118,1.0,7.0,48,0.00,,,0.00,weatherlink.com 1.10,2013-03-20 11:39:00,
2013-03-20 07:54:00,51.3,33.0,30.05,ENE,61,4.0,6.0,49,0.00,,,0.00,weatherlink.com 1.10,2013-03-20 11:54:00,
2013-03-20 08:09:00,52.2,32.0,30.05,NW,316,3.0,5.0,46,0.00,,,0.00,weatherlink.com 1.10,2013-03-20 12:09:00,
2013-03-20 08:24:00,52.6,32.0,30.06,NNW,333,2.0,6.0,45,0.00,,,0.00,weatherlink.com 1.10,2013-03-20 12:24:00,
2013-03-20 08:39:00,53.4,32.0,30.07,NNW,342,4.0,7.0,44,0.00,,,0.00,weatherlink.com 1.10,2013-03-20 12:39:00,
2013-03-20 08:54:00,54.1,32.0,30.07,North,354,4.0,8.0,43,0.00,,,0.00,weatherlink.com 1.10,2013-03-20 12:54:00,
2013-03-20 09:09:00,54.8,31.0,30.08,NNE,18,2.0,8.0,40,0.00,,,0.00,weatherlink.com 1.10,2013-03-20 13:09:00,
2013-03-20 09:24:00,55.8,30.0,30.08,SE,126,3.0,8.0,37,0.00,,,0.00,weatherlink.com 1.10,2013-03-20 13:24:00,
2013-03-20 09:39:00,55.9,30.0,30.08,NE,42,2.0,8.0,37,0.00,,,0.00,weatherlink.com 1.10,2013-03-20 13:39:00,
2013-03-20 09:54:00,56.2,28.0,30.08,SE,140,2.0,11.0,34,0.00,,,0.00,weatherlink.com 1.10,2013-03-20 13:54:00,
2013-03-20 10:09:00,56.8,25.0,30.08,NE,39,7.0,10.0,29,0.00,,,0.00,weatherlink.com 1.10,2013-03-20 14:09:00,
2013-03-20 10:24:00,57.8,26.0,30.08,NNW,338,2.0,11.0,30,0.00,,,0.00,weatherlink.com 1.10,2013-03-20 14:24:00,
2013-03-20 10:39:00,58.2,28.0,30.08,ESE,121,3.0,7.0,32,0.00,,,0.00,weatherlink.com 1.10,2013-03-20 14:39:00,
2013-03-20 10:54:00,58.3,28.0,30.09,NE,44,4.0,8.0,31,0.00,,,0.00,weatherlink.com 1.10,2013-03-20 14:54:00,
2013-03-20 11:09:00,58.9,27.0,30.08,NW,325,2.0,7.0,30,0.00,,,0.00,weatherlink.com 1.10,2013-03-20 15:09:00,
2013-03-20 11:24:00,59.7,26.0,30.08,NNE,30,2.0,8.0,28,0.00,,,0.00,weatherlink.com 1.10,2013-03-20 15:24:00,
2013-03-20 11:39:00,60.9,26.0,30.07,East,88,4.0,9.0,26,0.00,,,0.00,weatherlink.com 1.10,2013-03-20 15:39:00,
2013-03-20 11:54:00,61.1,30.0,30.06,West,274,1.0,9.0,31,0.00,,,0.00,weatherlink.com 1.10,2013-03-20 15:54:00,
2013-03-20 12:09:00,60.6,26.0,30.06,ESE,103,6.0,7.0,27,0.00,,,0.00,weatherlink.com 1.10,2013-03-20 16:09:00,
2013-03-20 12:24:00,61.2,25.0,30.05,NW,316,2.0,11.0,25,0.00,,,0.00,weatherlink.com 1.10,2013-03-20 16:24:00,
2013-03-20 12:39:00,61.1,25.0,30.05,ESE,108,6.0,9.0,25,0.00,,,0.00,weatherlink.com 1.10,2013-03-20 16:39:00,
2013-03-20 12:54:00,61.4,25.0,30.04,North,354,3.0,10.0,25,0.00,,,0.00,weatherlink.com 1.10,2013-03-20 16:54:00,
2013-03-20 13:09:00,63.4,30.0,30.03,North,6,7.0,7.0,28,0.00,,,0.00,weatherlink.com 1.10,2013-03-20 17:09:00,
2013-03-20 13:24:00,62.6,27.0,30.02,ESE,106,5.0,8.0,26,0.00,,,0.00,weatherlink.com 1.10,2013-03-20 17:24:00,
2013-03-20 13:39:00,62.8,24.0,30.00,ESE,108,3.0,7.0,23,0.00,,,0.00,weatherlink.com 1.10,2013-03-20 17:39:00,
2013-03-20 13:54:00,63.3,28.0,30.00,NE,51,6.0,9.0,26,0.00,,,0.00,weatherlink.com 1.10,2013-03-20 17:54:00,
2013-03-20 14:09:00,63.1,27.0,29.99,ESE,112,1.0,6.0,26,0.00,,,0.00,weatherlink.com 1.10,2013-03-20 18:09:00,
2013-03-20 14:25:00,63.9,25.0,29.98,NNW,330,4.0,7.0,23,0.00,,,0.00,weatherlink.com 1.10,2013-03-20 18:25:00,
2013-03-20 14:40:00,63.7,28.0,29.97,SE,125,1.0,7.0,26,0.00,,,0.00,weatherlink.com 1.10,2013-03-20 18:40:00,
2013-03-20 14:55:00,63.2,29.0,29.95,East,101,2.0,9.0,27,0.00,,,0.00,weatherlink.com 1.10,2013-03-20 18:55:00,
2013-03-20 15:10:00,62.6,34.0,29.92,SE,127,7.0,11.0,35,0.00,,,0.00,weatherlink.com 1.10,2013-03-20 19:10:00,
2013-03-20 15:40:00,61.8,38.0,29.90,East,93,5.0,11.0,42,0.00,,,0.00,weatherlink.com 1.10,2013-03-20 19:40:00,
2013-03-20 15:55:00,61.7,39.0,29.89,ESE,105,9.0,12.0,43,0.00,,,0.00,weatherlink.com 1.10,2013-03-20 19:55:00,
2013-03-20 16:10:00,61.1,38.0,29.90,SE,133,8.0,9.0,42,0.00,,,0.00,weatherlink.com 1.10,2013-03-20 20:10:00,
2013-03-20 16:25:00,60.6,39.0,29.89,ESE,117,8.0,12.0,45,0.00,,,0.00,weatherlink.com 1.10,2013-03-20 20:25:00,
2013-03-20 16:40:00,60.2,39.0,29.90,SE,125,10.0,13.0,45,0.00,,,0.00,weatherlink.com 1.10,2013-03-20 20:40:00,
2013-03-20 16:55:00,59.5,40.0,29.90,ESE,120,7.0,10.0,49,0.00,,,0.00,weatherlink.com 1.10,2013-03-20 20:55:00,
2013-03-20 17:10:00,58.3,41.0,29.91,ESE,120,9.0,13.0,52,0.00,,,0.00,weatherlink.com 1.10,2013-03-20 21:10:00,
2013-03-20 17:25:00,57.6,39.0,29.91,SSE,157,7.0,12.0,51,0.00,,,0.00,weatherlink.com 1.10,2013-03-20 21:25:00,
2013-03-20 17:40:00,56.8,39.0,29.91,SSE,160,5.0,12.0,52,0.00,,,0.00,weatherlink.com 1.10,2013-03-20 21:40:00,
2013-03-20 17:55:00,56.4,40.0,29.90,ESE,119,9.0,13.0,54,0.00,,,0.00,weatherlink.com 1.10,2013-03-20 21:55:00,
2013-03-20 18:10:00,56.1,39.0,29.90,ESE,118,5.0,13.0,54,0.00,,,0.00,weatherlink.com 1.10,2013-03-20 22:10:00,
2013-03-20 18:27:00,56.1,39.0,29.90,ESE,122,5.0,7.0,54,0.00,,,0.00,weatherlink.com 1.10,2013-03-20 22:27:00,
2013-03-20 18:40:00,56.1,39.0,29.90,SE,145,2.0,5.0,54,0.00,,,0.00,weatherlink.com 1.10,2013-03-20 22:40:00,
2013-03-20 18:55:00,55.8,40.0,29.89,East,100,0.0,2.0,56,0.00,,,0.00,weatherlink.com 1.10,2013-03-20 22:55:00,
2013-03-20 19:40:00,54.1,41.0,29.88,East,81,0.0,1.0,61,0.00,,,0.00,weatherlink.com 1.10,2013-03-20 23:40:00,
2013-03-20 19:55:00,53.6,41.0,29.87,East,81,1.0,1.0,62,0.00,,,0.00,weatherlink.com 1.10,2013-03-20 23:55:00,
2013-03-20 20:10:00,53.0,41.0,29.86,East,81,0.0,0.0,64,0.00,,,0.00,weatherlink.com 1.10,2013-03-21 00:10:00,
2013-03-20 20:25:00,53.0,43.0,29.86,SE,127,0.0,1.0,70,0.00,,,0.00,weatherlink.com 1.10,2013-03-21 00:25:00,
2013-03-20 20:40:00,52.1,43.0,29.86,SE,127,0.0,0.0,72,0.00,,,0.00,weatherlink.com 1.10,2013-03-21 00:40:00,
2013-03-20 20:55:00,51.0,42.0,29.86,SE,127,1.0,1.0,71,0.00,,,0.00,weatherlink.com 1.10,2013-03-21 00:55:00,
2013-03-20 21:10:00,50.3,42.0,29.85,SE,125,0.0,0.0,74,0.00,,,0.00,weatherlink.com 1.10,2013-03-21 01:10:00,
2013-03-20 21:25:00,49.0,42.0,29.85,SE,125,0.0,0.0,76,0.00,,,0.00,weatherlink.com 1.10,2013-03-21 01:25:00,
2013-03-20 21:40:00,48.5,42.0,29.86,SE,125,0.0,0.0,79,0.00,,,0.00,weatherlink.com 1.10,2013-03-21 01:40:00,
2013-03-20 21:55:00,47.3,41.0,29.86,SE,126,0.0,0.0,80,0.00,,,0.00,weatherlink.com 1.10,2013-03-21 01:55:00,
2013-03-20 22:10:00,47.1,42.0,29.86,SE,125,0.0,0.0,83,0.00,,,0.00,weatherlink.com 1.10,2013-03-21 02:10:00,
2013-03-20 22:25:00,46.9,42.0,29.86,SE,125,0.0,0.0,84,0.00,,,0.00,weatherlink.com 1.10,2013-03-21 02:25:00,
2013-03-20 22:40:00,46.7,42.0,29.85,SE,126,0.0,0.0,83,0.00,,,0.00,weatherlink.com 1.10,2013-03-21 02:40:00,
2013-03-20 22:55:00,46.5,42.0,29.85,SE,125,0.0,0.0,83,0.00,,,0.00,weatherlink.com 1.10,2013-03-21 02:55:00,
2013-03-20 23:11:00,45.9,42.0,29.85,SE,125,0.0,0.0,87,0.00,,,0.00,weatherlink.com 1.10,2013-03-21 03:11:00,
2013-03-20 23:26:00,46.0,43.0,29.85,SE,125,0.0,0.0,90,0.00,,,0.00,weatherlink.com 1.10,2013-03-21 03:26:00,